Content
SEND FEEDBACK

Daily
Averages
Monthly
Summary
Mexico

PLAYA DEL CARMEN, QUINTANA ROO


Home > North America > Mexico > Quintana Roo
Elevation: 9 meters     Latitude: 20 38N     Longitude: 087 04W

WEATHER
 
SELECT A DAY
Number of Records: 205,913;   Date Range: 2/21/06 - 12/17/14
 
SHARE

PRINT THIS DATA

[ ← Previous Day ]
WEATHER ALMANAC - 13 JULY, 2014
[ Next Day → ]
[ °F ]   °C
Weather ElementAverageHighLow
Temperature28.1 °C34 °C (12:15 pm)24 °C (10:55 pm)
Dewpoint6.5 °C27 °C (5:55 pm) (7:00 pm)
Humidity68.2 %100 % (5:55 pm)46 % (12:35 pm)
Barometer1019.6 hPa1021 hPa (2:35 am)1018.3 hPa (11:35 am)
Wind Speed4.7 km/h13 km/h (2:15 pm)
Wind Gust33.3 km/h (6:15 pm)
Weather ElementAverage
Visibility15.8 km
Wind DirectionENE (61.1 °)

Weather ElementTotal
Precipitation1.02 mm
Cooling Degree Days10.7 (Base 18.3)
Growing Degree Days19 (Base 10)
Averaged from 70 records on 13 July, 2014
WEATHER CONDITIONS BREAKOUT
WIND DIRECTION BREAKOUT
WEATHER BY HOUR - 13 JULY, 2014
[ °F ]   °C
Local TimeTemperatureDewpointHumidityBarometerVisibilityWind DirectionWind SpeedGust SpeedPrecipitationEventsConditions
12:15 AM24 °C-17.8 °C1021 hPa16.1 kmCalmMostly Cloudy
12:35 AM24 °C-17.8 °C1020.7 hPa16.1 kmCalm0.25 mmScattered Clouds
12:55 AM24 °C-17.8 °C1020.7 hPa16.1 kmEast (100°)5.6 km/h0.25 mmClear
1:15 AM24 °C-17.8 °C1020.7 hPa16.1 kmCalmClear
1:35 AM24 °C-17.8 °C1020.3 hPa16.1 kmCalmClear
1:55 AM24 °C-17.8 °C1020.3 hPa16.1 kmEast (80°)5.6 km/hClear
2:15 AM24 °C-17.8 °C1020.3 hPa16.1 kmCalmClear
2:35 AM24 °C-17.8 °C1020 hPa16.1 kmCalmClear
2:55 AM24 °C-17.8 °C1020 hPa16.1 kmEast (90°)5.6 km/hClear
3:15 AM24 °C-17.8 °C1020 hPa16.1 kmEast (100°)7.4 km/hClear
3:35 AM24 °C-17.8 °C1019.6 hPa16.1 kmCalmClear
3:55 AM24 °C-17.8 °C1019.6 hPa16.1 kmCalmClear
4:15 AM24 °C-17.8 °C1019.6 hPa16.1 kmESE (110°)5.6 km/hClear
4:35 AM24 °C-17.8 °C1019.3 hPa16.1 kmCalmClear
4:55 AM24 °C-17.8 °C1019 hPa16.1 kmCalmClear
5:15 AM24 °C-17.8 °C1019 hPa16.1 kmCalmClear
5:35 AM24 °C-17.8 °C1019 hPa16.1 kmCalmClear
5:55 AM24 °C-17.8 °C1019 hPa16.1 kmCalmClear
6:15 AM24 °C-17.8 °C1019.3 hPa16.1 kmCalmClear
6:35 AM24 °C-17.8 °C1019.3 hPa11.3 kmNorthClear
6:55 AM24 °C-17.8 °C1019.6 hPa6.4 kmNorthHaze
7:15 AM24 °C-17.8 °C1019.6 hPa11.3 kmCalmClear
7:35 AM25 °C-17.8 °C1019.6 hPa11.3 kmCalm0.25 mmClear
7:55 AM25 °C-17.8 °C1020 hPa16.1 kmCalm0.25 mmClear
8:15 AM25 °C-17.8 °C1020 hPa16.1 kmCalmClear
8:35 AM26 °C-17.8 °C1020 hPa16.1 kmCalmClear
8:55 AM27 °C-17.8 °C1020 hPa16.1 kmCalmClear
9:15 AM28 °C-17.8 °C1020.3 hPa16.1 kmESE (120°)9.3 km/hClear
9:35 AM29 °C-17.8 °C1020.3 hPa16.1 kmSE (140°)5.6 km/hClear
9:55 AM29 °C26 °C84 %1020.7 hPa16.1 kmSSE (150°)9.3 km/hScattered Clouds
10:15 AM30 °C26 °C79 %1020.7 hPa16.1 kmSE (140°)11.1 km/hScattered Clouds
10:35 AM30 °C25 °C74 %1021 hPa16.1 kmSSE (150°)7.4 km/hScattered Clouds
10:55 AM30 °C25 °C74 %1021 hPa16.1 kmSSE (160°)9.3 km/hScattered Clouds
11:15 AM31 °C24 °C66 %1021 hPa16.1 kmESE (120°)7.4 km/hScattered Clouds
11:35 AM31 °C24 °C66 %1021 hPa16.1 kmSSW (200°)7.4 km/hMostly Cloudy
11:55 AM31 °C24 °C66 %1021 hPa16.1 kmSE (130°)9.3 km/hMostly Cloudy
12:15 PM31 °C23 °C62 %1021 hPa16.1 kmCalmMostly Cloudy
12:35 PM31 °C23 °C62 %1021 hPa16.1 kmCalmScattered Clouds
12:55 PM32 °C22 °C55 %1020.7 hPa16.1 kmCalmClear
1:15 PM32 °C22 °C55 %1020.7 hPa16.1 kmCalmClear
1:35 PM32 °C23 °C59 %1020.3 hPa16.1 kmCalmScattered Clouds
1:55 PM32 °C22 °C55 %1020.3 hPa16.1 kmCalmMostly Cloudy
2:15 PM33 °C22 °C52 %1020 hPa16.1 kmNNE (30°)5.6 km/hMostly Cloudy
2:35 PM34 °C22 °C49 %1020 hPa16.1 kmESE (110°)7.4 km/hScattered Clouds
2:55 PM34 °C23 °C52 %1019.6 hPa16.1 kmEast (90°)13 km/hMostly Cloudy
3:15 PM33 °C23 °C55 %1019.3 hPa16.1 kmEast (100°)9.3 km/hMostly Cloudy
3:35 PM33 °C23 °C55 %1019.3 hPa16.1 kmEast (100°)11.1 km/hScattered Clouds
3:55 PM34 °C22 °C49 %1019 hPa16.1 kmEast (90°)11.1 km/hScattered Clouds
4:15 PM34 °C22 °C49 %1018.6 hPa16.1 kmESE (110°)9.3 km/hClear
4:35 PM34 °C21 °C46 %1018.6 hPa16.1 kmEast (80°)9.3 km/hScattered Clouds
4:55 PM32 °C23 °C59 %1018.6 hPa16.1 kmEast (80°)7.4 km/hScattered Clouds
5:15 PM32 °C23 °C59 %1018.3 hPa16.1 kmNE (50°)7.4 km/hScattered Clouds
5:35 PM31 °C23 °C62 %1018.6 hPa16.1 kmNNE (30°)5.6 km/hScattered Clouds
5:55 PM31 °C23 °C62 %1018.3 hPa16.1 kmNE (40°)5.6 km/hScattered Clouds
6:15 PM31 °C22 °C58 %1018.6 hPa16.1 kmNorth (10°)5.6 km/hClear
6:35 PM31 °C23 °C62 %1018.3 hPa16.1 kmNE (50°)9.3 km/hClear
7:15 PM31 °C23 °C62 %1018.6 hPa16.1 kmENE (60°)5.6 km/hClear
7:35 PM30 °C22 °C62 %1019 hPa16.1 kmESE (110°)13 km/h33.3 km/hScattered Clouds
7:55 PM29 °C22 °C66 %1019 hPa16.1 kmEast (100°)9.3 km/hScattered Clouds
8:15 PM29 °C23 °C70 %1019 hPa16.1 kmEast (100°)9.3 km/hScattered Clouds
8:35 PM28 °C24 °C79 %1019.3 hPa16.1 kmESE (120°)11.1 km/hClear
9:15 PM28 °C24 °C79 %1019 hPa16.1 kmEast (80°)5.6 km/hClear
9:35 PM27 °C25 °C89 %1019 hPa16.1 kmEast (90°)7.4 km/hClear
9:55 PM27 °C25 °C89 %1019.3 hPa16.1 kmENE (60°)5.6 km/hClear
10:15 PM27 °C26 °C94 %1019.3 hPa16.1 kmSE (140°)5.6 km/hClear
10:35 PM27 °C26 °C94 %1019.6 hPa16.1 kmSE (130°)7.4 km/hClear
10:55 PM27 °C27 °C100 %1019.6 hPa16.1 kmSouth (190°)7.4 km/hClear
11:15 PM27 °C26 °C94 %1020 hPa16.1 kmSouth (190°)5.6 km/hScattered Clouds
11:35 PM27 °C26 °C94 %1020 hPa16.1 kmCalmScattered Clouds
11:55 PM26 °C26 °C100 %1020 hPa16.1 kmSSE (150°)5.6 km/hScattered Clouds
Hourly data recorded from KPCM, located 0 kilometers away from Playa del Carmen, Quintana Roo







STORIES FROM OUR PARTNERS